Time,TemperatureF,DewpointF,PressureIn,WindDirection,WindDirectionDegrees,WindSpeedMPH,WindSpeedGustMPH,Humidity,HourlyPrecipIn,Conditions,Clouds,dailyrainin,SoftwareType,DateUTC
2013-04-24 00:02:00,32.0,30.0,30.26,West,280,5.0,-999.0,92,-99.99,,,-99.99,,2013-04-24 05:02:00,
2013-04-24 00:12:00,32.0,30.0,30.26,West,280,5.0,-999.0,92,-99.99,,,-99.99,,2013-04-24 05:12:00,
2013-04-24 00:21:00,32.0,30.0,30.26,West,280,3.0,-999.0,92,-99.99,,,-99.99,,2013-04-24 05:21:00,
2013-04-24 00:32:00,32.0,30.0,30.26,West,270,5.0,-999.0,92,-99.99,,,-99.99,,2013-04-24 05:32:00,
2013-04-24 00:42:00,32.0,30.0,30.26,West,270,5.0,-999.0,92,-99.99,,,-99.99,,2013-04-24 05:42:00,
2013-04-24 00:51:00,32.0,30.0,30.26,West,280,5.0,-999.0,92,-99.99,,,-99.99,,2013-04-24 05:51:00,
2013-04-24 01:02:00,32.0,30.0,30.26,West,280,5.0,-999.0,92,-99.99,,,-99.99,,2013-04-24 06:02:00,
2013-04-24 01:12:00,30.0,30.0,30.26,West,270,7.0,-999.0,100,-99.99,,,-99.99,,2013-04-24 06:12:00,
2013-04-24 01:21:00,30.0,28.0,30.27,West,260,6.0,-999.0,92,-99.99,,,-99.99,,2013-04-24 06:21:00,
2013-04-24 01:32:00,30.0,28.0,30.27,West,260,6.0,-999.0,92,-99.99,,,-99.99,,2013-04-24 06:32:00,
2013-04-24 01:42:00,30.0,28.0,30.27,West,270,6.0,-999.0,92,-99.99,,,-99.99,,2013-04-24 06:42:00,
2013-04-24 01:51:00,30.0,28.0,30.26,West,280,7.0,-999.0,92,-99.99,,,-99.99,,2013-04-24 06:51:00,
2013-04-24 02:02:00,30.0,28.0,30.26,West,280,7.0,-999.0,92,-99.99,,,-99.99,,2013-04-24 07:02:00,
2013-04-24 02:11:00,30.0,28.0,30.26,West,280,7.0,-999.0,92,-99.99,,,-99.99,,2013-04-24 07:11:00,
2013-04-24 02:22:00,30.0,28.0,30.26,West,280,8.0,-999.0,92,-99.99,,,-99.99,,2013-04-24 07:22:00,
2013-04-24 02:32:00,30.0,28.0,30.26,West,280,8.0,-999.0,92,-99.99,,,-99.99,,2013-04-24 07:32:00,
2013-04-24 02:41:00,30.0,28.0,30.26,West,280,8.0,-999.0,92,-99.99,,,-99.99,,2013-04-24 07:41:00,
2013-04-24 02:52:00,30.0,28.0,30.26,West,280,8.0,-999.0,92,-99.99,,,-99.99,,2013-04-24 07:52:00,
2013-04-24 03:01:00,30.0,28.0,30.26,West,280,8.0,-999.0,92,-99.99,,,-99.99,,2013-04-24 08:01:00,
2013-04-24 03:11:00,30.0,28.0,30.25,West,280,6.0,-999.0,92,-99.99,,,-99.99,,2013-04-24 08:11:00,
2013-04-24 03:21:00,28.0,28.0,30.25,West,270,5.0,-999.0,100,-99.99,,,-99.99,,2013-04-24 08:21:00,
2013-04-24 03:33:00,28.0,27.0,30.24,West,270,5.0,-999.0,92,-99.99,,,-99.99,,2013-04-24 08:33:00,
2013-04-24 03:42:00,28.0,27.0,30.23,West,270,5.0,-999.0,92,-99.99,,,-99.99,,2013-04-24 08:42:00,
2013-04-24 03:52:00,28.0,27.0,30.23,West,280,3.0,-999.0,92,-99.99,,,-99.99,,2013-04-24 08:52:00,
2013-04-24 04:01:00,28.0,27.0,30.23,West,280,3.0,-999.0,92,-99.99,,,-99.99,,2013-04-24 09:01:00,
2013-04-24 04:11:00,28.0,27.0,30.22,West,280,3.0,-999.0,92,-99.99,,,-99.99,,2013-04-24 09:11:00,
2013-04-24 04:21:00,28.0,27.0,30.22,WNW,290,5.0,-999.0,92,-99.99,,,-99.99,,2013-04-24 09:21:00,
2013-04-24 04:33:00,28.0,27.0,30.23,WNW,290,3.0,-999.0,92,-99.99,,,-99.99,,2013-04-24 09:33:00,
2013-04-24 04:42:00,28.0,27.0,30.24,West,270,3.0,-999.0,92,-99.99,,,-99.99,,2013-04-24 09:42:00,
2013-04-24 04:53:00,28.0,27.0,30.25,West,260,5.0,-999.0,92,-99.99,,,-99.99,,2013-04-24 09:53:00,
2013-04-24 05:02:00,28.0,27.0,30.25,West,260,5.0,-999.0,92,-99.99,,,-99.99,,2013-04-24 10:02:00,
2013-04-24 05:12:00,27.0,27.0,30.25,West,270,3.0,-999.0,100,-99.99,,,-99.99,,2013-04-24 10:12:00,
2013-04-24 05:22:00,27.0,25.0,30.25,WSW,250,5.0,-999.0,92,-99.99,,,-99.99,,2013-04-24 10:22:00,
2013-04-24 05:32:00,27.0,27.0,30.26,WSW,240,6.0,-999.0,100,-99.99,,,-99.99,,2013-04-24 10:32:00,
2013-04-24 05:42:00,28.0,27.0,30.26,WSW,240,6.0,-999.0,92,-99.99,,,-99.99,,2013-04-24 10:42:00,
2013-04-24 05:52:00,28.0,27.0,30.26,WSW,240,5.0,-999.0,92,-99.99,,,-99.99,,2013-04-24 10:52:00,
2013-04-24 06:02:00,28.0,27.0,30.26,WSW,240,5.0,-999.0,92,-99.99,,,-99.99,,2013-04-24 11:02:00,
2013-04-24 06:11:00,27.0,27.0,30.26,WSW,240,5.0,-999.0,100,-99.99,,,-99.99,,2013-04-24 11:11:00,
2013-04-24 06:21:00,28.0,27.0,30.25,WSW,250,5.0,-999.0,92,-99.99,,,-99.99,,2013-04-24 11:21:00,
2013-04-24 06:32:00,27.0,25.0,30.25,West,270,3.0,-999.0,92,-99.99,,,-99.99,,2013-04-24 11:32:00,
2013-04-24 06:42:00,27.0,25.0,30.24,West,270,5.0,-999.0,92,-99.99,,,-99.99,,2013-04-24 11:42:00,
2013-04-24 06:52:00,27.0,25.0,30.24,West,260,5.0,-999.0,92,-99.99,,,-99.99,,2013-04-24 11:52:00,
2013-04-24 07:02:00,27.0,25.0,30.24,West,260,5.0,-999.0,92,-99.99,,,-99.99,,2013-04-24 12:02:00,
2013-04-24 07:11:00,27.0,25.0,30.24,West,280,5.0,-999.0,92,-99.99,,,-99.99,,2013-04-24 12:11:00,
2013-04-24 07:22:00,27.0,25.0,30.23,WNW,290,6.0,-999.0,92,-99.99,,,-99.99,,2013-04-24 12:22:00,
2013-04-24 07:32:00,27.0,25.0,30.24,West,280,5.0,-999.0,92,-99.99,,,-99.99,,2013-04-24 12:32:00,
2013-04-24 07:42:00,27.0,27.0,30.24,West,270,5.0,-999.0,100,-99.99,,,-99.99,,2013-04-24 12:42:00,
2013-04-24 07:51:00,28.0,27.0,30.26,WSW,240,6.0,-999.0,92,-99.99,,,-99.99,,2013-04-24 12:51:00,
2013-04-24 08:01:00,28.0,27.0,30.26,WSW,240,6.0,-999.0,92,-99.99,,,-99.99,,2013-04-24 13:01:00,
2013-04-24 08:12:00,30.0,27.0,30.25,West,270,6.0,-999.0,86,-99.99,,,-99.99,,2013-04-24 13:12:00,
2013-04-24 08:22:00,30.0,28.0,30.25,WNW,290,6.0,-999.0,92,-99.99,,,-99.99,,2013-04-24 13:22:00,
2013-04-24 08:31:00,32.0,28.0,30.26,WNW,290,7.0,-999.0,86,-99.99,,,-99.99,,2013-04-24 13:31:00,
2013-04-24 08:41:00,32.0,28.0,30.26,WNW,300,7.0,-999.0,86,-99.99,,,-99.99,,2013-04-24 13:41:00,
2013-04-24 08:52:00,34.0,30.0,30.26,West,270,5.0,-999.0,86,-99.99,,,-99.99,,2013-04-24 13:52:00,
2013-04-24 09:01:00,34.0,30.0,30.26,West,270,5.0,-999.0,86,-99.99,,,-99.99,,2013-04-24 14:01:00,
2013-04-24 09:11:00,34.0,30.0,30.26,West,280,5.0,-999.0,86,-99.99,,,-99.99,,2013-04-24 14:11:00,
2013-04-24 09:21:00,36.0,30.0,30.27,West,260,6.0,-999.0,80,-99.99,,,-99.99,,2013-04-24 14:21:00,
2013-04-24 09:32:00,36.0,30.0,30.26,WNW,300,5.0,-999.0,80,-99.99,,,-99.99,,2013-04-24 14:32:00,
2013-04-24 09:41:00,36.0,30.0,30.27,WNW,290,3.0,-999.0,80,-99.99,,,-99.99,,2013-04-24 14:41:00,
2013-04-24 09:51:00,37.0,32.0,30.27,WNW,290,5.0,-999.0,80,-99.99,,,-99.99,,2013-04-24 14:51:00,
2013-04-24 10:01:00,37.0,32.0,30.27,WNW,290,5.0,-999.0,80,-99.99,,,-99.99,,2013-04-24 15:01:00,
2013-04-24 10:11:00,37.0,32.0,30.27,West,280,6.0,-999.0,80,-99.99,,,-99.99,,2013-04-24 15:11:00,
2013-04-24 10:21:00,39.0,32.0,30.27,West,280,6.0,-999.0,75,-99.99,,,-99.99,,2013-04-24 15:21:00,
2013-04-24 10:33:00,41.0,34.0,30.27,West,270,5.0,-999.0,75,-99.99,,,-99.99,,2013-04-24 15:33:00,
2013-04-24 10:42:00,41.0,34.0,30.27,West,260,5.0,-999.0,75,-99.99,,,-99.99,,2013-04-24 15:42:00,
2013-04-24 10:52:00,43.0,34.0,30.28,West,270,5.0,-999.0,70,-99.99,,,-99.99,,2013-04-24 15:52:00,
2013-04-24 11:03:00,43.0,34.0,30.28,West,270,5.0,-999.0,70,-99.99,,,-99.99,,2013-04-24 16:03:00,
2013-04-24 11:12:00,45.0,34.0,30.29,WSW,240,6.0,-999.0,65,-99.99,,,-99.99,,2013-04-24 16:12:00,
2013-04-24 11:23:00,45.0,34.0,30.30,WSW,240,7.0,-999.0,65,-99.99,,,-99.99,,2013-04-24 16:23:00,
2013-04-24 11:32:00,46.0,34.0,30.30,West,270,8.0,-999.0,61,-99.99,,,-99.99,,2013-04-24 16:32:00,
2013-04-24 11:42:00,46.0,34.0,30.30,WSW,250,7.0,-999.0,61,-99.99,,,-99.99,,2013-04-24 16:42:00,
2013-04-24 11:52:00,48.0,34.0,30.30,West,270,8.0,-999.0,57,-99.99,,,-99.99,,2013-04-24 16:52:00,
2013-04-24 12:02:00,48.0,34.0,30.30,West,270,8.0,-999.0,57,-99.99,,,-99.99,,2013-04-24 17:02:00,
2013-04-24 12:12:00,48.0,32.0,30.30,WNW,290,9.0,-999.0,53,-99.99,,,-99.99,,2013-04-24 17:12:00,
2013-04-24 12:22:00,50.0,32.0,30.29,WNW,290,9.0,-999.0,49,-99.99,,,-99.99,,2013-04-24 17:22:00,
2013-04-24 12:32:00,50.0,32.0,30.29,WSW,250,9.0,-999.0,49,-99.99,,,-99.99,,2013-04-24 17:32:00,
2013-04-24 12:42:00,50.0,32.0,30.29,WNW,300,6.0,-999.0,49,-99.99,,,-99.99,,2013-04-24 17:42:00,
2013-04-24 12:51:00,52.0,30.0,30.28,WSW,250,10.0,-999.0,43,-99.99,,,-99.99,,2013-04-24 17:51:00,
2013-04-24 13:02:00,52.0,30.0,30.28,WSW,250,10.0,-999.0,43,-99.99,,,-99.99,,2013-04-24 18:02:00,
2013-04-24 13:12:00,52.0,28.0,30.28,West,270,12.0,-999.0,40,-99.99,,,-99.99,,2013-04-24 18:12:00,
2013-04-24 13:21:00,52.0,28.0,30.27,WSW,250,6.0,-999.0,40,-99.99,,,-99.99,,2013-04-24 18:21:00,
2013-04-24 13:33:00,52.0,28.0,30.27,West,260,7.0,-999.0,40,-99.99,,,-99.99,,2013-04-24 18:33:00,
2013-04-24 13:42:00,52.0,28.0,30.27,WSW,240,9.0,-999.0,40,-99.99,,,-99.99,,2013-04-24 18:42:00,
2013-04-24 13:52:00,54.0,28.0,30.27,SSW,200,8.0,-999.0,37,-99.99,,,-99.99,,2013-04-24 18:52:00,
2013-04-24 14:02:00,54.0,28.0,30.27,SSW,200,8.0,-999.0,37,-99.99,,,-99.99,,2013-04-24 19:02:00,
2013-04-24 14:11:00,54.0,28.0,30.27,West,260,12.0,-999.0,37,-99.99,,,-99.99,,2013-04-24 19:11:00,
2013-04-24 14:21:00,55.0,28.0,30.26,West,270,5.0,-999.0,35,-99.99,,,-99.99,,2013-04-24 19:21:00,
2013-04-24 14:31:00,55.0,30.0,30.25,WSW,250,9.0,-999.0,37,-99.99,,,-99.99,,2013-04-24 19:31:00,
2013-04-24 14:42:00,55.0,28.0,30.25,WSW,240,3.0,-999.0,35,-99.99,,,-99.99,,2013-04-24 19:42:00,
2013-04-24 14:52:00,55.0,28.0,30.25,WSW,240,10.0,16.0,35,-99.99,,,-99.99,,2013-04-24 19:52:00,
2013-04-24 15:02:00,55.0,28.0,30.25,WSW,240,10.0,16.0,35,-99.99,,,-99.99,,2013-04-24 20:02:00,
2013-04-24 15:11:00,55.0,28.0,30.24,West,270,6.0,-999.0,35,-99.99,,,-99.99,,2013-04-24 20:11:00,
2013-04-24 15:21:00,55.0,30.0,30.23,WSW,240,10.0,-999.0,37,-99.99,,,-99.99,,2013-04-24 20:21:00,
2013-04-24 15:32:00,55.0,28.0,30.23,SW,230,3.0,-999.0,35,-99.99,,,-99.99,,2013-04-24 20:32:00,
2013-04-24 15:42:00,55.0,28.0,30.23,West,260,9.0,-999.0,35,-99.99,,,-99.99,,2013-04-24 20:42:00,
2013-04-24 15:51:00,57.0,28.0,30.23,West,260,6.0,-999.0,33,-99.99,,,-99.99,,2013-04-24 20:51:00,
2013-04-24 16:02:00,57.0,28.0,30.23,West,260,6.0,-999.0,33,-99.99,,,-99.99,,2013-04-24 21:02:00,
2013-04-24 16:11:00,57.0,28.0,30.22,North,0,0.0,-999.0,33,-99.99,,,-99.99,,2013-04-24 21:11:00,
2013-04-24 16:21:00,57.0,27.0,30.21,West,270,7.0,-999.0,30,-99.99,,,-99.99,,2013-04-24 21:21:00,
2013-04-24 16:33:00,57.0,27.0,30.21,West,280,7.0,-999.0,30,-99.99,,,-99.99,,2013-04-24 21:33:00,
2013-04-24 16:42:00,57.0,28.0,30.20,West,270,6.0,-999.0,33,-99.99,,,-99.99,,2013-04-24 21:42:00,
2013-04-24 16:52:00,59.0,28.0,30.20,West,280,10.0,-999.0,30,-99.99,,,-99.99,,2013-04-24 21:52:00,
2013-04-24 17:03:00,59.0,28.0,30.20,West,280,10.0,-999.0,30,-99.99,,,-99.99,,2013-04-24 22:03:00,
2013-04-24 17:12:00,59.0,28.0,30.20,North,0,0.0,-999.0,30,-99.99,,,-99.99,,2013-04-24 22:12:00,
2013-04-24 17:22:00,59.0,30.0,30.20,West,280,8.0,-999.0,33,-99.99,,,-99.99,,2013-04-24 22:22:00,
2013-04-24 17:33:00,61.0,30.0,30.20,West,260,10.0,16.0,31,-99.99,,,-99.99,,2013-04-24 22:33:00,
2013-04-24 17:42:00,61.0,28.0,30.19,West,270,6.0,16.0,29,-99.99,,,-99.99,,2013-04-24 22:42:00,
2013-04-24 17:52:00,59.0,30.0,30.19,West,270,6.0,-999.0,33,-99.99,,,-99.99,,2013-04-24 22:52:00,
2013-04-24 18:02:00,59.0,30.0,30.19,West,270,6.0,-999.0,33,-99.99,,,-99.99,,2013-04-24 23:02:00,
2013-04-24 18:12:00,61.0,30.0,30.19,West,280,9.0,-999.0,31,-99.99,,,-99.99,,2013-04-24 23:12:00,
2013-04-24 18:21:00,61.0,30.0,30.19,West,280,7.0,-999.0,31,-99.99,,,-99.99,,2013-04-24 23:21:00,
2013-04-24 18:32:00,61.0,30.0,30.19,West,260,9.0,-999.0,31,-99.99,,,-99.99,,2013-04-24 23:32:00,
2013-04-24 18:42:00,61.0,30.0,30.20,West,280,8.0,-999.0,31,-99.99,,,-99.99,,2013-04-24 23:42:00,
2013-04-24 18:51:00,61.0,32.0,30.20,West,260,5.0,-999.0,33,-99.99,,,-99.99,,2013-04-24 23:51:00,
2013-04-24 19:01:00,61.0,32.0,30.20,West,260,5.0,-999.0,33,-99.99,,,-99.99,,2013-04-25 00:01:00,
2013-04-24 19:12:00,61.0,30.0,30.20,WSW,240,5.0,-999.0,31,-99.99,,,-99.99,,2013-04-25 00:12:00,
2013-04-24 19:22:00,59.0,30.0,30.19,WSW,250,5.0,-999.0,33,-99.99,,,-99.99,,2013-04-25 00:22:00,
2013-04-24 19:32:00,59.0,30.0,30.19,SW,230,3.0,-999.0,33,-99.99,,,-99.99,,2013-04-25 00:32:00,
2013-04-24 19:41:00,57.0,30.0,30.19,South,180,8.0,-999.0,35,-99.99,,,-99.99,,2013-04-25 00:41:00,
2013-04-24 19:52:00,57.0,34.0,30.19,South,190,5.0,-999.0,41,-99.99,,,-99.99,,2013-04-25 00:52:00,
2013-04-24 20:01:00,57.0,34.0,30.19,South,190,5.0,-999.0,41,-99.99,,,-99.99,,2013-04-25 01:01:00,
2013-04-24 20:11:00,55.0,34.0,30.19,South,180,6.0,-999.0,43,-99.99,,,-99.99,,2013-04-25 01:11:00,
2013-04-24 20:22:00,54.0,32.0,30.19,South,170,5.0,-999.0,43,-99.99,,,-99.99,,2013-04-25 01:22:00,
2013-04-24 20:32:00,54.0,34.0,30.19,South,170,5.0,-999.0,46,-99.99,,,-99.99,,2013-04-25 01:32:00,
2013-04-24 20:42:00,54.0,34.0,30.19,South,180,7.0,-999.0,46,-99.99,,,-99.99,,2013-04-25 01:42:00,
2013-04-24 20:52:00,52.0,34.0,30.19,South,180,9.0,-999.0,50,-99.99,,,-99.99,,2013-04-25 01:52:00,
2013-04-24 21:02:00,52.0,34.0,30.19,South,180,9.0,-999.0,50,-99.99,,,-99.99,,2013-04-25 02:02:00,
2013-04-24 21:11:00,52.0,36.0,30.19,South,180,7.0,-999.0,53,-99.99,,,-99.99,,2013-04-25 02:11:00,
2013-04-24 21:22:00,48.0,36.0,30.20,South,180,7.0,-999.0,61,-99.99,,,-99.99,,2013-04-25 02:22:00,
2013-04-24 21:32:00,48.0,36.0,30.20,South,180,8.0,-999.0,61,-99.99,,,-99.99,,2013-04-25 02:32:00,
2013-04-24 21:42:00,48.0,36.0,30.20,South,180,8.0,-999.0,61,-99.99,,,-99.99,,2013-04-25 02:42:00,
2013-04-24 21:51:00,48.0,36.0,30.20,South,180,8.0,-999.0,61,-99.99,,,-99.99,,2013-04-25 02:51:00,
2013-04-24 22:02:00,46.0,36.0,30.21,South,180,8.0,-999.0,65,-99.99,,,-99.99,,2013-04-25 03:02:00,
2013-04-24 22:11:00,46.0,36.0,30.22,South,190,7.0,-999.0,65,-99.99,,,-99.99,,2013-04-25 03:11:00,
2013-04-24 22:22:00,46.0,34.0,30.23,SSW,200,8.0,-999.0,61,-99.99,,,-99.99,,2013-04-25 03:22:00,
2013-04-24 22:33:00,46.0,34.0,30.23,SSW,200,8.0,-999.0,61,-99.99,,,-99.99,,2013-04-25 03:33:00,
2013-04-24 22:42:00,46.0,34.0,30.23,SSW,200,10.0,-999.0,61,-99.99,,,-99.99,,2013-04-25 03:42:00,
2013-04-24 22:52:00,46.0,34.0,30.24,South,190,8.0,-999.0,61,-99.99,,,-99.99,,2013-04-25 03:52:00,
2013-04-24 23:03:00,46.0,34.0,30.24,South,190,8.0,-999.0,61,-99.99,,,-99.99,,2013-04-25 04:03:00,
2013-04-24 23:12:00,46.0,34.0,30.24,SSW,200,9.0,-999.0,61,-99.99,,,-99.99,,2013-04-25 04:12:00,
2013-04-24 23:22:00,46.0,34.0,30.25,SSW,210,5.0,-999.0,61,-99.99,,,-99.99,,2013-04-25 04:22:00,
2013-04-24 23:32:00,46.0,34.0,30.25,South,190,8.0,-999.0,61,-99.99,,,-99.99,,2013-04-25 04:32:00,
2013-04-24 23:43:00,46.0,32.0,30.25,SSW,200,7.0,-999.0,57,-99.99,,,-99.99,,2013-04-25 04:43:00,
2013-04-24 23:52:00,46.0,32.0,30.25,SSW,200,8.0,-999.0,57,-99.99,,,-99.99,,2013-04-25 04:52:00,